14/04/2024 03:45:00,0.882
14/04/2024 04:00:00,0.882
14/04/2024 04:15:00,0.882
14/04/2024 04:30:00,0.882
14/04/2024 04:45:00,0.879
14/04/2024 05:00:00,0.878
14/04/2024 05:15:00,0.878
14/04/2024 05:30:00,0.877
14/04/2024 05:45:00,0.876
14/04/2024 06:00:00,0.873
14/04/2024 06:15:00,0.874
14/04/2024 06:30:00,0.873
14/04/2024 06:45:00,0.873
14/04/2024 07:00:00,0.873
14/04/2024 07:15:00,0.872
14/04/2024 07:30:00,0.872
14/04/2024 07:45:00,0.87
14/04/2024 08:00:00,0.871
14/04/2024 08:15:00,0.869
14/04/2024 08:30:00,0.868
14/04/2024 08:45:00,0.868
14/04/2024 09:00:00,0.867
14/04/2024 09:15:00,0.867
14/04/2024 09:30:00,0.865
14/04/2024 09:45:00,0.865
14/04/2024 10:00:00,0.864
14/04/2024 10:15:00,0.864
14/04/2024 10:30:00,0.863
14/04/2024 10:45:00,0.863
14/04/2024 11:00:00,0.862
14/04/2024 11:15:00,0.862
14/04/2024 11:30:00,0.86
14/04/2024 11:45:00,0.862
14/04/2024 12:00:00,0.86
14/04/2024 12:15:00,0.86
14/04/2024 12:30:00,0.859
14/04/2024 12:45:00,0.859
14/04/2024 13:00:00,0.859
14/04/2024 13:15:00,0.859
14/04/2024 13:30:00,0.859
14/04/2024 13:45:00,0.858
14/04/2024 14:00:00,0.858
14/04/2024 14:15:00,0.856
14/04/2024 14:30:00,0.855
14/04/2024 14:45:00,0.855
14/04/2024 15:00:00,0.854
14/04/2024 15:15:00,0.854
14/04/2024 15:30:00,0.855
14/04/2024 15:45:00,0.854
14/04/2024 16:00:00,0.853
14/04/2024 16:15:00,0.854
14/04/2024 16:30:00,0.853
14/04/2024 16:45:00,0.853
14/04/2024 17:00:00,0.854
14/04/2024 17:15:00,0.854
14/04/2024 17:30:00,0.854
14/04/2024 17:45:00,0.855
14/04/2024 18:00:00,0.857
14/04/2024 18:15:00,0.857
14/04/2024 18:30:00,0.858
14/04/2024 18:45:00,0.859
14/04/2024 19:00:00,0.86
14/04/2024 19:15:00,0.862
14/04/2024 19:30:00,0.863
14/04/2024 19:45:00,0.865
14/04/2024 20:00:00,0.866
14/04/2024 20:15:00,0.867
14/04/2024 20:30:00,0.868
14/04/2024 20:45:00,0.87
14/04/2024 21:00:00,0.872
14/04/2024 21:15:00,0.873
14/04/2024 21:30:00,0.874
14/04/2024 21:45:00,0.878
14/04/2024 22:00:00,0.881
14/04/2024 22:15:00,0.882
14/04/2024 22:30:00,0.886
14/04/2024 22:45:00,0.888
14/04/2024 23:00:00,0.893
14/04/2024 23:15:00,0.897
14/04/2024 23:30:00,0.901
14/04/2024 23:45:00,0.907
15/04/2024 00:00:00,0.914
15/04/2024 00:15:00,0.918
15/04/2024 00:30:00,0.921
15/04/2024 00:45:00,0.926
15/04/2024 01:00:00,0.932
15/04/2024 01:15:00,0.937
15/04/2024 01:30:00,0.943
15/04/2024 01:45:00,0.951
15/04/2024 02:00:00,0.962
15/04/2024 02:15:00,0.975
15/04/2024 02:30:00,0.989
15/04/2024 02:45:00,1.008
15/04/2024 03:00:00,1.023
15/04/2024 03:15:00,1.038
15/04/2024 03:30:00,1.049
15/04/2024 03:45:00,1.064
15/04/2024 04:00:00,1.076
15/04/2024 04:15:00,1.087
15/04/2024 04:30:00,1.096
15/04/2024 04:45:00,1.102
15/04/2024 05:00:00,1.109
15/04/2024 05:15:00,1.114
15/04/2024 05:30:00,1.118
15/04/2024 05:45:00,1.123
15/04/2024 06:00:00,1.128
15/04/2024 06:15:00,1.133
15/04/2024 06:30:00,1.135
15/04/2024 06:45:00,1.138
15/04/2024 07:00:00,1.139
15/04/2024 07:15:00,1.138
15/04/2024 07:30:00,1.135
15/04/2024 07:45:00,1.133
15/04/2024 08:00:00,1.13
15/04/2024 08:15:00,1.128
15/04/2024 08:30:00,1.12
15/04/2024 08:45:00,1.117
15/04/2024 09:00:00,1.112
15/04/2024 09:15:00,1.107
15/04/2024 09:30:00,1.101
15/04/2024 09:45:00,1.093
15/04/2024 10:00:00,1.089
15/04/2024 10:15:00,1.082
15/04/2024 10:30:00,1.078
15/04/2024 10:45:00,1.071
15/04/2024 11:00:00,1.066
15/04/2024 11:15:00,1.06
15/04/2024 11:30:00,1.055
15/04/2024 11:45:00,1.049
15/04/2024 12:00:00,1.046
15/04/2024 12:15:00,1.041
15/04/2024 12:30:00,1.036
15/04/2024 12:45:00,1.029
15/04/2024 13:00:00,1.023
15/04/2024 13:15:00,1.02
15/04/2024 13:30:00,1.015
15/04/2024 13:45:00,1.013
15/04/2024 14:00:00,1.01
15/04/2024 14:15:00,1.008
15/04/2024 14:30:00,1.008
15/04/2024 14:45:00,1.002
15/04/2024 15:00:00,0.999
15/04/2024 15:15:00,0.998
15/04/2024 15:30:00,0.994
15/04/2024 15:45:00,0.992
15/04/2024 16:00:00,0.989
15/04/2024 16:15:00,0.988
15/04/2024 16:30:00,0.985
15/04/2024 16:45:00,0.981
15/04/2024 17:00:00,0.978
15/04/2024 17:15:00,0.975
15/04/2024 17:30:00,0.971
15/04/2024 17:45:00,0.97
15/04/2024 18:00:00,0.969
15/04/2024 18:15:00,0.965
15/04/2024 18:30:00,0.965
15/04/2024 18:45:00,0.964
15/04/2024 19:00:00,0.961
15/04/2024 19:15:00,0.961
15/04/2024 19:30:00,0.958
15/04/2024 19:45:00,0.959
15/04/2024 20:00:00,0.956
15/04/2024 20:15:00,0.954
15/04/2024 20:30:00,0.952
15/04/2024 20:45:00,0.951
15/04/2024 21:00:00,0.95
15/04/2024 21:15:00,0.949
15/04/2024 21:30:00,0.967
15/04/2024 21:45:00,0.993
15/04/2024 22:00:00,1.01
15/04/2024 22:15:00,1.012
15/04/2024 22:30:00,1.013
15/04/2024 22:45:00,1.013
15/04/2024 23:00:00,1.013
15/04/2024 23:15:00,1.015
15/04/2024 23:30:00,1.014
15/04/2024 23:45:00,1.012
16/04/2024 00:00:00,1.01
16/04/2024 00:15:00,1.01
16/04/2024 00:30:00,1.008
16/04/2024 00:45:00,1.008
16/04/2024 01:00:00,1.007
16/04/2024 01:15:00,1.007
16/04/2024 01:30:00,1.006
16/04/2024 01:45:00,1.005
16/04/2024 02:00:00,1.003
16/04/2024 02:15:00,1.003
16/04/2024 02:30:00,1.002
16/04/2024 02:45:00,1.001
16/04/2024 03:00:00,0.999
16/04/2024 03:15:00,0.998
16/04/2024 03:30:00,0.998
16/04/2024 03:45:00,0.998
16/04/2024 04:00:00,0.997
16/04/2024 04:15:00,0.994
16/04/2024 04:30:00,0.994
16/04/2024 04:45:00,0.993
16/04/2024 05:00:00,0.994
16/04/2024 05:15:00,0.993
16/04/2024 05:30:00,0.992
16/04/2024 05:45:00,0.99
16/04/2024 06:00:00,0.989
16/04/2024 06:15:00,0.988
16/04/2024 06:30:00,0.989
16/04/2024 06:45:00,0.988
16/04/2024 07:00:00,0.987
16/04/2024 07:15:00,0.987
16/04/2024 07:30:00,0.986
16/04/2024 07:45:00,0.984
16/04/2024 08:00:00,0.984
16/04/2024 08:15:00,0.982
16/04/2024 08:30:00,0.97
16/04/2024 08:45:00,0.948
16/04/2024 09:00:00,0.929
16/04/2024 09:15:00,0.916
16/04/2024 09:30:00,0.909
16/04/2024 09:45:00,0.905
16/04/2024 10:00:00,0.904
16/04/2024 10:15:00,0.901
16/04/2024 10:30:00,0.899
16/04/2024 10:45:00,0.899
16/04/2024 11:00:00,0.898
16/04/2024 11:15:00,0.896
16/04/2024 11:30:00,0.895
16/04/2024 11:45:00,0.893
16/04/2024 12:00:00,0.893
16/04/2024 12:15:00,0.892
16/04/2024 12:30:00,0.891
16/04/2024 12:45:00,0.891
16/04/2024 13:00:00,0.889
16/04/2024 13:15:00,0.888
16/04/2024 13:30:00,0.887
16/04/2024 13:45:00,0.886
16/04/2024 14:00:00,0.886
16/04/2024 14:15:00,0.885
16/04/2024 14:30:00,0.884
16/04/2024 14:45:00,0.883
16/04/2024 15:00:00,0.883
16/04/2024 15:15:00,0.882
16/04/2024 15:30:00,0.881
16/04/2024 15:45:00,0.88
16/04/2024 16:00:00,0.878
16/04/2024 16:15:00,0.877
16/04/2024 16:30:00,0.877
16/04/2024 16:45:00,0.876
16/04/2024 17:00:00,0.876
16/04/2024 17:15:00,0.874
16/04/2024 17:30:00,0.874
16/04/2024 17:45:00,0.874
16/04/2024 18:00:00,0.872
16/04/2024 18:15:00,0.873
16/04/2024 18:30:00,0.871
16/04/2024 18:45:00,0.872
16/04/2024 19:00:00,0.871
16/04/2024 19:15:00,0.868
16/04/2024 19:30:00,0.868
16/04/2024 19:45:00,0.868
16/04/2024 20:00:00,0.868
16/04/2024 20:15:00,0.867
16/04/2024 20:30:00,0.866
16/04/2024 20:45:00,0.866
16/04/2024 21:00:00,0.867
16/04/2024 21:15:00,0.89
16/04/2024 21:30:00,0.919
16/04/2024 21:45:00,0.936
16/04/2024 22:00:00,0.94
16/04/2024 22:15:00,0.942
16/04/2024 22:30:00,0.942
16/04/2024 22:45:00,0.945
16/04/2024 23:00:00,0.943
16/04/2024 23:15:00,0.945
16/04/2024 23:30:00,0.943
16/04/2024 23:45:00,0.945
17/04/2024 00:00:00,0.944
17/04/2024 00:15:00,0.946
17/04/2024 00:30:00,0.943
17/04/2024 00:45:00,0.944
17/04/2024 01:00:00,0.943
17/04/2024 01:15:00,0.944
17/04/2024 01:30:00,0.944
17/04/2024 01:45:00,0.943
17/04/2024 02:00:00,0.943
17/04/2024 02:15:00,0.942
17/04/2024 02:30:00,0.941
17/04/2024 02:45:00,0.942
17/04/2024 03:00:00,0.942
17/04/2024 03:15:00,0.941
17/04/2024 03:30:00,0.939
17/04/2024 03:45:00,0.941
17/04/2024 04:00:00,0.939
17/04/2024 04:15:00,0.939
17/04/2024 04:30:00,0.938
17/04/2024 04:45:00,0.939
17/04/2024 05:00:00,0.939
17/04/2024 05:15:00,0.939
17/04/2024 05:30:00,0.938
17/04/2024 05:45:00,0.938
17/04/2024 06:00:00,0.937
17/04/2024 06:15:00,0.937
17/04/2024 06:30:00,0.937
17/04/2024 06:45:00,0.936
17/04/2024 07:00:00,0.936
17/04/2024 07:15:00,0.936
17/04/2024 07:30:00,0.934
17/04/2024 07:45:00,0.935
17/04/2024 08:00:00,0.933
17/04/2024 08:15:00,0.934
17/04/2024 08:30:00,0.933
17/04/2024 08:45:00,0.929
17/04/2024 09:00:00,0.914
17/04/2024 09:15:00,0.891
17/04/2024 09:30:00,0.873
17/04/2024 09:45:00,0.861
17/04/2024 10:00:00,0.855
17/04/2024 10:15:00,0.851
17/04/2024 10:30:00,0.849
17/04/2024 10:45:00,0.849
17/04/2024 11:00:00,0.846
17/04/2024 11:15:00,0.846
17/04/2024 11:30:00,0.845
17/04/2024 11:45:00,0.844
17/04/2024 12:00:00,0.844
17/04/2024 12:15:00,0.842
17/04/2024 12:30:00,0.842
17/04/2024 12:45:00,0.841
17/04/2024 13:00:00,0.84
17/04/2024 13:15:00,0.84
17/04/2024 13:30:00,0.84
17/04/2024 13:45:00,0.84
17/04/2024 14:00:00,0.839
17/04/2024 14:15:00,0.837
17/04/2024 14:30:00,0.836
17/04/2024 14:45:00,0.836
17/04/2024 15:00:00,0.836
17/04/2024 15:15:00,0.834
17/04/2024 15:30:00,0.834
17/04/2024 15:45:00,0.834
17/04/2024 16:00:00,0.832
17/04/2024 16:15:00,0.832
17/04/2024 16:30:00,0.832
17/04/2024 16:45:00,0.831
17/04/2024 17:00:00,0.831
17/04/2024 17:15:00,0.831
17/04/2024 17:30:00,0.83
17/04/2024 17:45:00,0.829
17/04/2024 18:00:00,0.828
17/04/2024 18:15:00,0.828
17/04/2024 18:30:00,0.828
17/04/2024 18:45:00,0.827
17/04/2024 19:00:00,0.826
17/04/2024 19:15:00,0.827
17/04/2024 19:30:00,0.826
17/04/2024 19:45:00,0.826
17/04/2024 20:00:00,0.826
17/04/2024 20:15:00,0.825
17/04/2024 20:30:00,0.824
17/04/2024 20:45:00,0.824
17/04/2024 21:00:00,0.823
17/04/2024 21:15:00,0.823
17/04/2024 21:30:00,0.822
17/04/2024 21:45:00,0.822
17/04/2024 22:00:00,0.822
17/04/2024 22:15:00,0.822
17/04/2024 22:30:00,0.821
17/04/2024 22:45:00,0.822
17/04/2024 23:00:00,0.821
17/04/2024 23:15:00,0.821
17/04/2024 23:30:00,0.82
17/04/2024 23:45:00,0.82
18/04/2024 00:00:00,0.819
18/04/2024 00:15:00,0.818
18/04/2024 00:30:00,0.818
18/04/2024 00:45:00,0.818
18/04/2024 01:00:00,0.818
18/04/2024 01:15:00,0.817
18/04/2024 01:30:00,0.817
18/04/2024 01:45:00,0.817
18/04/2024 02:00:00,0.816
18/04/2024 02:15:00,0.817
18/04/2024 02:30:00,0.815
18/04/2024 02:45:00,0.816
18/04/2024 03:00:00,0.814
18/04/2024 03:15:00,0.816
18/04/2024 03:30:00,0.814
18/04/2024 03:45:00,0.814
18/04/2024 04:00:00,0.813
18/04/2024 04:15:00,0.814
18/04/2024 04:30:00,0.813
18/04/2024 04:45:00,0.813
18/04/2024 05:00:00,0.813
18/04/2024 05:15:00,0.812
18/04/2024 05:30:00,0.812
18/04/2024 05:45:00,0.812
18/04/2024 06:00:00,0.811
18/04/2024 06:15:00,0.811
18/04/2024 06:30:00,0.811
18/04/2024 06:45:00,0.811
18/04/2024 07:00:00,0.81
18/04/2024 07:15:00,0.81
18/04/2024 07:30:00,0.81
18/04/2024 07:45:00,0.81
18/04/2024 08:00:00,0.809
18/04/2024 08:15:00,0.809
18/04/2024 08:30:00,0.808
18/04/2024 08:45:00,0.808
18/04/2024 09:00:00,0.808
18/04/2024 09:15:00,0.808
18/04/2024 09:30:00,0.808
18/04/2024 09:45:00,0.808
18/04/2024 10:00:00,0.808
18/04/2024 10:15:00,0.807
18/04/2024 10:30:00,0.807
18/04/2024 10:45:00,0.808
18/04/2024 11:00:00,0.808
18/04/2024 11:15:00,0.807
18/04/2024 11:30:00,0.806
18/04/2024 11:45:00,0.807
18/04/2024 12:00:00,0.805
18/04/2024 12:15:00,0.807
18/04/2024 12:30:00,0.807
18/04/2024 12:45:00,0.806
18/04/2024 13:00:00,0.806
18/04/2024 13:15:00,0.807
18/04/2024 13:30:00,0.805
18/04/2024 13:45:00,0.807
18/04/2024 14:00:00,0.805
18/04/2024 14:15:00,0.805
18/04/2024 14:30:00,0.806
18/04/2024 14:45:00,0.805
18/04/2024 15:00:00,0.805
18/04/2024 15:15:00,0.804
18/04/2024 15:30:00,0.806
18/04/2024 15:45:00,0.806
18/04/2024 16:00:00,0.805
18/04/2024 16:15:00,0.806
18/04/2024 16:30:00,0.804
18/04/2024 16:45:00,0.805
18/04/2024 17:00:00,0.805
18/04/2024 17:15:00,0.805
18/04/2024 17:30:00,0.807
18/04/2024 17:45:00,0.805
18/04/2024 18:00:00,0.804
18/04/2024 18:15:00,0.804
18/04/2024 18:30:00,0.804
18/04/2024 18:45:00,0.805
18/04/2024 19:00:00,0.804
18/04/2024 19:15:00,0.805
18/04/2024 19:30:00,0.804
18/04/2024 19:45:00,0.805
18/04/2024 20:00:00,0.803
18/04/2024 20:15:00,0.803
18/04/2024 20:30:00,0.803
18/04/2024 20:45:00,0.804
18/04/2024 21:00:00,0.803
18/04/2024 21:15:00,0.805
18/04/2024 21:30:00,0.803
18/04/2024 21:45:00,0.803
18/04/2024 22:00:00,0.802
18/04/2024 22:15:00,0.801
18/04/2024 22:30:00,0.802
18/04/2024 22:45:00,0.802
18/04/2024 23:00:00,0.802
18/04/2024 23:15:00,0.802
18/04/2024 23:30:00,0.801
18/04/2024 23:45:00,0.8
19/04/2024 00:00:00,0.8
19/04/2024 00:15:00,0.8
19/04/2024 00:30:00,0.799
19/04/2024 00:45:00,0.799
19/04/2024 01:00:00,0.799
19/04/2024 01:15:00,0.799
19/04/2024 01:30:00,0.799
19/04/2024 01:45:00,0.798
19/04/2024 02:00:00,0.797
19/04/2024 02:15:00,0.796
19/04/2024 02:30:00,0.796
19/04/2024 02:45:00,0.797
19/04/2024 03:00:00,0.796
19/04/2024 03:15:00,0.796
